GEFSGL_500_meanwind_120.txt.gz
Wind_Speed
11 13 14 14 14 14 14 15 15 16 16 16 16 16 15 14 12 10 9 7 5 4 3 5 6 8 10 12 15 16 18 19 20 21 22 23 24 24 25 25 26 27 28
12 13 14 14 14 14 14 14 14 15 15 15 15 15 15 14 12 11 9 8 6 4 3 4 5 7 9 10 12 14 16 18 19 20 21 22 22 24 24 24 24 25 26
12 13 13 14 14 14 13 13 13 14 14 14 14 15 14 13 13 11 9 8 6 5 4 3 4 6 8 9 10 12 14 16 18 19 20 21 22 23 23 24 24 24 25
13 13 13 14 14 14 13 13 13 13 13 13 13 14 14 13 12 12 10 8 7 6 5 4 3 4 6 8 9 11 13 15 16 18 19 20 20 22 23 24 24 23 24
14 14 14 14 14 14 13 12 12 12 12 12 13 13 13 12 12 11 11 9 8 7 5 4 4 4 4 6 8 10 12 14 15 16 17 19 19 20 22 23 24 23 24
15 15 14 14 14 14 13 13 12 12 12 12 12 12 12 12 11 11 10 10 9 7 6 5 5 5 5 6 7 9 11 12 14 16 17 18 19 20 21 22 23 24 24
17 17 16 15 15 14 14 13 13 13 12 12 12 12 12 11 11 11 10 9 9 8 8 7 6 5 6 7 8 10 11 12 14 15 17 18 19 20 21 22 24 24 24
18 18 18 17 17 16 15 15 14 14 13 13 12 12 12 12 11 11 10 10 9 9 8 8 7 7 7 7 8 10 11 12 14 15 17 18 19 20 20 21 22 24 24
20 20 20 19 19 18 17 16 15 15 15 14 14 13 13 13 12 11 11 11 10 10 9 9 8 8 8 8 8 9 11 12 13 15 16 17 19 20 21 21 22 23 25
22 22 22 22 21 20 19 18 18 17 16 16 15 15 14 14 14 13 12 12 12 11 11 11 10 10 9 9 9 9 10 12 13 14 15 17 18 20 21 22 23 23 24
25 24 24 24 24 23 22 21 20 20 19 18 17 17 16 16 15 15 14 14 13 13 13 12 12 12 11 11 11 11 11 12 13 14 15 16 18 19 21 22 23 23 24
27 27 26 26 26 25 25 24 23 22 21 20 20 19 19 18 17 17 17 16 15 15 15 14 14 14 13 13 12 12 12 13 13 14 15 16 17 19 20 21 23 24 24
29 29 28 28 28 28 27 26 26 25 24 23 22 21 21 20 19 19 18 18 18 17 17 16 16 15 15 14 14 14 14 15 15 15 16 17 18 19 20 21 22 24 25
32 31 31 31 30 30 29 29 28 28 27 26 25 24 23 22 22 21 20 20 19 19 19 18 17 17 16 16 16 16 16 16 17 17 18 18 19 20 21 22 23 24 25
34 34 33 33 32 32 32 31 30 30 29 28 27 26 25 24 24 23 22 22 21 21 20 20 20 19 18 18 18 18 18 19 19 19 20 20 21 21 22 23 24 25 26
36 36 36 35 35 34 34 33 33 32 32 31 30 29 28 27 26 25 24 24 23 23 22 22 21 21 21 21 21 21 21 21 21 21 22 22 23 23 24 24 25 26 27
39 38 38 38 37 37 36 36 35 34 34 33 32 32 31 30 29 28 27 26 26 25 25 24 24 23 23 23 23 23 23 23 23 23 23 23 24 24 25 26 27 27 28
42 41 41 40 40 39 39 38 38 37 36 35 35 34 33 32 31 30 29 29 28 27 27 26 26 26 25 25 25 25 25 25 25 25 25 26 26 26 27 27 28 28 29
45 44 43 43 42 42 41 40 40 40 39 38 37 36 36 35 34 33 32 31 30 29 28 28 28 28 27 27 27 27 27 27 27 28 28 28 28 28 29 29 29 30 30
48 47 46 45 45 44 44 43 42 42 41 40 39 39 38 37 36 35 34 33 32 31 30 30 29 29 29 29 28 29 29 29 29 30 30 30 30 31 31 31 32 32 32
49 48 48 47 46 46 45 45 44 43 43 42 41 41 40 39 38 37 36 35 34 33 32 32 31 31 31 30 30 30 30 30 31 31 32 32 32 32 33 33 33 34 34
49 48 48 48 47 47 46 46 45 45 44 44 43 43 42 41 40 39 38 36 35 35 34 34 33 33 33 33 32 32 33 33 33 33 33 33 33 34 34 34 35 35 36
49 49 48 48 48 48 47 47 46 46 46 45 45 44 43 43 42 40 40 39 38 37 36 35 35 34 34 35 35 35 34 34 34 34 34 34 35 35 35 36 36 36 37
50 50 49 49 49 49 48 48 47 47 46 46 45 45 44 44 43 42 41 40 40 39 38 37 37 36 36 35 35 35 35 36 35 35 35 35 35 36 36 37 37 37 38
49 49 49 49 48 49 48 48 47 47 46 46 45 45 45 44 44 43 42 41 40 39 39 38 38 37 37 37 37 37 36 36 36 36 36 36 37 37 37 37 37 38 38
47 47 47 47 47 47 48 47 47 46 45 45 45 45 45 44 43 43 42 41 40 40 40 39 39 38 38 38 38 38 37 37 37 37 37 37 37 37 37 38 38 38 38

GEFSGL_500_meanwind_126.txt.gz
Wind_Speed
11 11 12 13 13 13 13 14 14 14 14 14 15 15 15 14 14 13 11 10 8 7 5 4 5 6 8 9 10 12 14 15 17 18 20 20 21 21 23 25 25 26 28
11 12 12 13 13 13 13 13 14 14 14 14 14 14 14 14 13 13 11 10 8 7 5 4 3 5 7 8 9 11 13 14 15 16 18 19 21 22 22 23 24 24 26
12 12 13 13 14 14 14 14 14 14 14 14 14 14 14 13 13 12 11 10 9 7 6 4 3 4 6 7 8 10 12 14 15 16 17 19 20 20 22 22 23 24 25
14 14 14 14 15 14 14 14 14 14 14 14 14 14 13 13 12 12 11 9 8 7 6 5 5 4 6 7 8 9 11 13 15 16 17 18 20 21 22 23 24 25 25
15 15 15 15 16 16 15 15 15 15 15 14 14 14 13 13 12 11 10 10 9 8 7 6 6 6 6 7 8 9 11 13 14 16 16 17 19 21 22 23 24 25 26
17 17 17 17 17 17 17 16 16 16 16 15 15 14 14 13 12 12 11 10 9 9 8 7 7 7 7 8 8 9 11 12 14 15 16 17 18 20 21 22 23 25 26
19 19 19 19 19 18 18 18 18 18 17 17 16 15 15 14 13 12 12 11 11 10 9 8 8 8 9 9 9 10 12 13 14 15 16 17 18 20 20 22 23 24 25
21 21 22 22 21 21 20 20 20 20 19 19 18 17 16 15 15 14 13 13 12 11 11 10 9 9 9 10 10 11 12 13 14 16 17 17 18 19 21 22 23 24 26
23 23 23 23 23 23 23 22 22 21 21 21 20 19 18 18 17 16 15 15 14 13 13 12 11 11 11 11 11 12 13 14 15 16 17 18 18 19 21 22 23 24 25
26 25 26 26 26 26 25 25 24 24 23 23 22 21 21 20 19 19 18 17 16 15 14 14 14 13 13 13 13 13 14 15 15 16 17 18 19 19 20 21 22 23 25
28 28 28 29 29 28 28 27 27 27 26 25 25 24 23 22 22 21 20 20 19 18 17 17 16 16 15 15 15 15 15 16 16 17 17 18 19 19 20 21 21 23 24
31 31 31 31 31 31 31 30 30 30 29 28 27 27 26 25 24 24 23 22 21 20 19 19 18 18 18 17 17 17 17 17 18 18 18 18 19 20 20 21 22 23 24
34 33 33 32 32 33 33 33 33 32 32 31 30 29 28 28 28 27 26 25 24 23 22 21 20 20 20 19 19 18 18 19 19 19 20 20 20 21 21 22 22 23 24
36 36 35 35 35 35 35 36 35 35 34 34 33 32 31 31 30 30 29 28 27 26 24 23 23 22 22 22 21 21 20 20 20 21 21 21 21 22 22 23 24 24 25
39 39 38 38 39 38 38 38 38 38 37 37 36 35 34 33 32 32 31 30 29 28 27 26 26 25 25 24 24 23 23 22 22 22 22 22 22 23 23 23 24 24 25
43 42 42 42 42 42 41 41 41 40 40 40 39 38 37 36 36 35 34 33 32 31 30 29 28 27 26 26 25 25 24 24 24 24 24 24 24 25 25 25 25 25 26
46 45 45 45 45 45 45 44 44 43 43 42 41 40 40 39 38 37 36 35 34 33 32 31 30 30 29 28 27 27 26 26 26 26 26 26 27 27 27 27 27 27 28
49 48 48 47 47 47 47 47 47 46 45 44 43 42 41 41 40 40 39 38 37 36 34 34 33 32 31 30 30 29 29 28 28 28 28 28 29 29 29 29 29 29 29
53 52 51 50 49 49 49 49 48 47 46 46 44 43 43 43 42 41 41 40 39 38 36 35 35 34 33 32 32 31 30 30 30 29 29 29 30 30 30 30 31 31 31
56 55 54 53 52 52 51 50 49 48 48 47 46 45 45 45 45 44 43 42 41 40 39 38 37 36 35 35 34 33 33 32 32 31 31 31 30 30 31 31 32 32 32
56 56 55 54 53 53 52 51 51 50 49 48 48 48 47 47 46 46 45 44 43 42 41 40 39 38 37 37 36 35 34 34 33 33 32 32 32 32 32 32 32 32 33
56 56 55 54 53 53 53 52 51 51 50 49 49 49 49 48 47 47 46 45 44 44 43 42 41 40 38 37 37 35 35 34 34 34 33 33 33 33 33 33 33 33 33
57 56 55 54 54 52 52 52 51 51 51 50 51 51 50 49 48 48 47 47 46 45 45 44 42 41 40 39 38 37 37 36 35 34 34 34 34 34 34 34 34 34 34
56 55 54 53 52 52 51 51 51 51 50 50 51 51 51 50 49 48 48 47 46 46 45 44 43 42 42 40 39 39 38 38 37 36 36 36 36 36 36 35 35 35 36
53 53 51 51 50 50 50 50 49 49 48 49 49 49 50 50 49 49 48 47 46 46 46 45 44 43 43 41 40 40 40 40 39 38 37 37 36 36 36 36 35 35 35
51 49 48 48 48 48 49 48 48 47 47 47 46 47 48 48 48 48 48 47 46 46 46 45 44 44 44 42 41 41 41 40 39 39 38 37 37 37 36 36 36 36 36

GEFSGL_500_meanwind_132.txt.gz
Wind_Speed
11 11 11 12 12 13 13 13 14 14 15 15 15 15 15 16 16 15 14 12 11 10 8 6 5 4 6 7 9 11 12 13 15 18 21 21 23 24 25 26 27 28 29
12 12 12 13 13 14 14 14 14 15 15 15 15 16 16 16 15 15 14 13 11 9 8 7 5 5 5 6 8 10 12 13 14 16 19 20 21 23 24 25 25 27 28
13 13 13 14 14 14 15 15 15 15 16 16 16 16 16 15 15 15 14 13 11 10 9 7 6 6 6 7 8 10 11 13 14 16 18 19 20 22 24 25 25 26 27
14 14 15 15 15 16 16 16 16 16 16 16 16 16 16 16 15 15 14 13 12 11 10 8 7 7 7 8 8 9 11 12 14 15 17 18 20 21 22 23 23 25 26
15 16 16 16 17 17 17 17 17 17 17 17 17 17 17 17 16 15 14 14 13 12 11 10 10 9 9 10 10 11 11 12 14 15 16 17 18 20 21 22 23 23 24
17 17 18 18 18 19 19 19 19 19 19 18 18 18 18 18 17 16 16 15 14 13 12 12 11 11 10 11 11 12 13 14 15 16 17 18 18 19 21 22 23 23 24
18 19 19 20 20 20 21 21 21 21 21 20 20 19 19 19 19 18 18 17 16 15 15 14 13 13 12 12 13 13 13 15 16 17 19 20 20 20 21 22 23 23 25
20 21 21 22 22 23 23 23 23 23 23 23 22 22 21 21 21 20 20 19 18 17 17 16 16 15 15 15 15 15 15 16 17 18 19 20 21 22 22 22 23 23 25
23 23 24 24 25 25 25 26 26 26 26 26 25 25 24 23 23 23 22 22 21 20 19 19 18 18 18 18 17 17 17 18 18 19 20 21 22 23 23 23 24 24 25
25 26 26 27 28 28 29 29 29 29 29 28 28 28 28 27 26 26 25 25 24 24 23 22 21 21 20 20 20 20 20 20 20 20 21 22 23 23 23 24 24 25 26
28 29 29 30 31 31 32 32 32 32 32 31 31 30 30 30 30 29 28 28 27 27 26 25 24 24 23 23 22 22 22 22 22 22 22 23 23 24 25 25 25 26 26
31 32 33 33 34 34 34 34 35 35 34 34 34 34 33 33 33 32 32 31 30 30 29 28 27 26 26 25 25 24 24 24 24 23 23 23 24 25 25 26 26 26 26
35 36 36 37 37 38 38 37 37 37 37 38 38 37 37 36 36 35 35 34 34 33 32 31 31 30 29 28 27 27 26 26 26 25 25 25 25 25 25 26 26 27 27
38 38 39 39 40 40 40 40 41 41 41 41 40 40 40 39 38 37 37 37 36 35 34 34 33 32 32 31 29 29 28 28 27 27 27 27 27 26 26 26 27 27 27
41 41 42 42 43 43 44 44 44 44 44 43 43 42 42 41 40 39 39 38 38 38 37 36 35 34 34 33 32 31 30 29 29 29 28 28 28 28 28 28 28 28 28
45 45 46 46 46 46 47 47 46 46 46 45 44 44 44 43 42 41 41 40 40 40 40 38 37 36 35 35 34 33 33 32 31 30 30 30 30 30 29 29 29 29 29
48 49 50 50 50 50 49 49 49 48 48 47 46 46 45 45 45 44 43 42 42 42 41 40 39 38 37 36 36 35 35 34 34 33 32 31 31 31 30 30 30 30 30
52 52 53 53 53 53 52 52 51 51 50 49 48 48 48 47 46 46 46 45 44 44 43 42 41 40 39 38 37 37 36 36 36 35 34 34 33 32 32 32 31 31 31
55 55 55 55 55 56 55 55 54 53 53 52 50 49 49 49 48 48 47 47 46 45 45 44 43 42 41 41 40 39 38 38 37 36 36 35 35 34 34 33 33 33 33
58 58 58 57 57 57 57 57 56 54 53 53 51 50 50 50 49 49 49 49 48 47 47 46 45 43 42 43 42 41 40 40 39 38 37 36 35 35 35 34 34 34 34
59 59 59 58 58 57 57 56 55 54 53 52 51 51 51 50 50 50 49 49 50 49 48 47 46 46 44 43 43 43 42 41 40 39 38 38 37 36 35 35 34 34 34
59 59 59 58 57 56 56 55 55 53 52 51 50 50 50 50 50 50 49 49 50 50 50 50 49 48 48 45 44 44 43 42 41 40 39 38 37 37 36 35 35 35 34
59 58 58 57 56 55 55 54 53 51 50 49 49 49 49 48 48 49 49 49 49 49 49 49 50 49 48 47 44 44 44 43 42 41 41 40 39 38 38 37 36 36 35
58 58 57 56 55 54 53 51 50 49 48 48 48 47 47 46 46 47 48 48 48 47 48 48 48 48 47 47 45 44 44 43 43 42 42 41 40 39 39 38 37 37 37
57 57 56 55 54 52 50 49 48 47 47 47 47 47 46 46 45 45 46 46 47 46 46 47 48 48 47 47 45 44 44 44 44 44 43 42 41 40 40 39 39 38 37
56 55 54 53 51 49 47 47 46 45 46 45 45 46 46 45 44 44 45 45 45 45 45 45 47 47 47 46 45 44 44 45 45 45 44 43 42 41 41 40 40 39 37

GEFSGL_500_meanwind_138.txt.gz
Wind_Speed
10 10 11 11 12 13 13 13 14 14 15 15 16 16 16 16 16 17 17 16 16 14 13 11 9 7 6 5 6 6 8 10 11 12 14 16 18 20 21 22 23 23 24
10 11 11 12 12 13 14 14 14 15 15 15 16 16 16 16 16 16 16 16 16 14 13 12 10 9 7 7 7 7 8 9 11 12 13 14 16 19 21 22 23 23 25
11 11 12 12 13 14 14 14 15 15 15 16 16 16 17 17 16 16 16 16 15 15 13 12 11 10 9 8 8 8 9 9 11 12 13 14 16 18 19 21 23 24 24
11 12 13 13 14 14 15 15 16 16 16 17 17 17 17 17 17 17 17 16 16 15 14 14 13 12 11 10 9 10 10 11 12 13 14 15 16 18 19 21 22 23 24
13 13 14 14 15 15 16 16 17 17 17 18 18 18 18 18 18 18 17 17 17 17 16 15 14 14 13 13 12 12 12 12 13 13 14 15 17 18 19 20 22 24 24
15 15 15 16 16 17 17 18 18 19 19 19 19 19 20 20 20 20 20 19 19 19 18 17 16 16 15 15 14 14 15 15 15 15 16 17 18 19 20 20 22 24 24
16 17 17 17 18 19 20 20 20 21 21 22 21 22 22 22 23 23 23 22 22 21 21 20 20 19 18 17 17 17 17 17 17 18 18 19 20 20 22 22 22 23 24
18 18 19 19 20 21 21 22 23 23 23 24 24 24 24 25 25 25 26 26 25 25 24 24 23 22 22 21 20 20 20 20 20 20 20 21 22 22 22 23 23 24 26
20 20 21 22 22 23 23 24 25 25 26 26 27 27 27 27 28 28 28 29 28 28 27 26 26 26 25 25 24 23 23 23 23 23 23 23 23 24 24 24 25 25 27
23 23 24 25 25 26 26 26 27 28 28 29 30 30 31 31 31 32 32 32 32 31 30 30 29 29 29 29 28 27 27 26 26 26 26 26 26 26 26 26 26 27 27
26 27 27 28 28 29 29 29 30 30 31 32 33 34 34 35 35 35 35 35 35 34 34 33 32 32 33 33 32 31 30 30 29 29 28 28 28 28 28 28 28 28 28
29 29 30 31 32 33 33 33 34 35 35 36 37 37 38 38 39 39 39 38 38 37 37 37 36 35 35 35 34 34 33 33 32 31 31 30 30 30 30 30 30 30 30
32 32 33 34 35 36 37 37 38 39 40 40 41 41 41 41 42 41 41 41 41 40 40 40 39 38 37 37 36 36 35 35 34 33 33 32 32 31 31 31 31 31 31
35 36 37 37 39 40 41 41 42 42 43 44 45 45 45 45 44 44 44 43 43 43 43 42 41 41 40 39 38 38 37 37 36 35 35 34 34 33 33 33 32 32 32
39 39 40 41 42 43 43 44 45 45 46 47 48 48 47 47 47 47 47 47 46 45 45 44 43 42 42 42 40 39 39 39 38 37 37 36 35 35 34 34 34 34 33
42 43 44 45 45 46 47 47 48 49 49 50 51 51 50 50 50 49 49 49 48 47 46 45 44 43 43 43 43 41 41 40 39 39 38 38 37 36 35 35 35 34 34
45 46 47 47 48 49 50 50 51 51 52 53 53 53 53 53 52 51 50 50 49 49 47 46 45 44 44 44 44 43 43 42 41 40 39 39 39 38 37 37 36 35 35
48 49 50 50 51 51 52 53 54 55 55 55 54 54 54 53 52 51 51 51 50 49 48 47 47 46 46 45 45 44 43 43 42 42 41 41 40 39 39 38 38 37 36
51 51 52 53 54 55 55 56 57 57 56 56 55 54 54 54 53 52 51 50 49 49 48 47 46 46 46 45 45 44 44 43 44 44 42 41 41 41 40 39 38 38 38
53 54 55 56 57 57 57 58 57 57 56 56 56 55 55 54 53 52 51 50 49 48 48 47 46 46 46 46 46 46 45 44 44 44 43 42 42 42 42 41 40 39 39
55 56 57 58 58 58 58 57 57 57 57 57 56 55 54 54 53 52 50 49 48 47 47 47 46 46 46 47 47 47 46 45 44 44 44 43 42 42 42 41 41 40 39
57 57 58 58 57 57 57 57 57 57 57 57 55 54 54 53 52 50 49 48 47 45 45 46 46 45 45 45 46 46 46 46 45 44 43 42 42 42 43 42 42 41 40
58 57 57 57 57 57 56 57 57 57 56 56 55 54 53 52 50 48 47 46 46 45 44 45 45 44 43 43 44 45 45 45 45 45 44 42 42 42 42 42 42 41 40
57 57 57 57 57 57 58 58 57 56 56 55 55 54 52 50 49 47 47 46 46 46 46 46 45 45 44 44 44 45 45 45 44 45 44 42 42 41 41 42 42 41 41
57 57 57 57 58 58 59 58 57 56 55 55 54 53 51 49 48 47 46 46 46 45 45 44 43 43 44 43 43 43 44 44 44 45 45 42 42 41 40 41 41 41 41
58 58 58 58 58 59 59 58 57 55 54 53 52 50 49 48 46 45 45 44 44 43 42 41 41 40 40 39 39 40 41 42 42 43 45 43 42 41 40 41 41 41 41

GEFSGL_500_meanwind_144.txt.gz
Wind_Speed
6 6 6 6 7 7 7 8 8 9 10 11 11 12 12 12 12 12 12 12 13 12 12 11 10 9 7 6 5 5 5 6 8 10 12 14 16 17 18 20 21 23 24
6 6 6 7 7 7 7 8 9 10 10 11 11 12 12 12 12 12 12 12 13 13 12 12 11 10 8 7 7 6 6 7 8 10 12 13 15 17 18 20 22 23 24
7 7 7 7 7 8 8 9 10 10 11 11 12 12 12 12 12 12 12 13 13 13 13 12 12 11 9 9 8 8 8 9 9 10 11 13 14 16 18 19 22 24 25
8 8 8 8 8 9 9 10 11 11 12 13 13 13 13 13 13 13 13 14 14 14 14 14 13 13 12 11 11 11 11 11 12 12 13 14 15 16 18 20 21 24 25
9 9 9 9 10 10 11 12 13 13 14 14 14 14 14 14 15 15 15 15 16 16 16 16 15 15 15 14 14 14 14 14 14 15 15 16 18 19 20 21 22 24 25
10 10 11 11 12 12 13 14 15 15 15 16 16 16 16 16 17 17 17 17 18 18 18 18 18 18 18 18 17 17 17 17 17 18 18 19 20 21 22 23 24 25 26
12 12 12 13 14 14 15 16 16 17 18 18 18 19 19 19 19 19 20 20 21 21 21 21 21 21 21 21 21 21 21 21 21 21 22 22 23 24 24 25 26 26 27
14 14 15 15 16 17 17 18 19 19 20 20 21 21 22 22 22 22 23 23 24 24 24 25 25 25 25 25 25 25 25 25 25 25 25 26 26 27 27 28 29 29 29
16 17 17 18 19 19 20 21 21 22 23 23 24 25 25 25 25 26 26 27 27 28 28 29 29 29 29 30 30 29 28 28 28 28 28 29 29 30 30 31 31 32 32
19 20 20 21 21 22 23 24 25 25 26 26 27 28 28 28 29 30 30 30 31 31 32 32 33 33 34 34 34 33 32 32 32 32 32 32 33 33 33 33 34 35 35
22 22 23 24 25 25 26 27 28 28 29 30 30 31 31 31 32 33 34 34 35 35 36 36 37 37 37 37 37 37 36 36 36 36 36 36 36 36 36 36 37 37 37
24 25 26 27 28 29 30 30 31 32 32 33 34 34 34 35 36 37 37 38 39 39 40 40 40 40 40 40 40 40 40 39 39 39 39 38 38 38 39 39 39 39 39
27 28 29 30 31 32 33 33 34 35 36 36 37 37 38 38 39 40 41 42 43 43 44 44 44 44 44 43 43 43 43 43 42 41 41 40 40 40 41 40 40 40 39
30 31 32 33 33 34 35 36 37 38 39 39 40 40 41 42 43 44 45 45 46 47 47 47 47 47 46 46 45 44 44 44 44 43 42 42 42 42 42 42 41 42 41
33 34 35 35 36 37 38 39 40 41 42 42 43 43 44 45 46 47 48 49 49 50 50 49 49 48 47 46 45 44 44 45 45 44 43 43 43 43 43 43 43 43 43
36 37 37 38 39 40 41 42 43 44 45 46 46 47 48 49 49 51 52 52 52 51 50 49 49 48 47 46 45 45 46 46 46 46 45 45 45 44 44 44 45 44 45
39 40 41 42 42 43 44 45 46 47 48 49 49 50 51 52 53 53 53 53 52 52 51 50 50 49 48 48 47 47 47 47 48 48 48 47 47 47 46 46 46 47 46
42 43 44 45 46 46 47 48 49 50 51 52 52 53 54 54 54 55 55 54 53 53 52 52 51 50 50 49 49 49 49 49 49 49 49 48 47 47 47 47 47 46 46
45 46 47 47 48 49 50 51 52 53 54 54 54 54 55 55 56 56 56 55 54 53 53 52 52 51 51 51 51 51 50 49 48 48 48 47 48 47 46 46 47 46 46
47 48 49 50 51 52 53 54 55 56 56 56 56 56 56 56 55 55 55 55 54 54 53 53 53 53 52 52 52 51 50 49 49 49 48 48 48 47 47 47 47 48 47
49 50 51 52 53 54 55 56 57 58 58 58 57 57 57 56 55 55 55 55 54 54 54 54 54 53 53 52 50 49 48 47 47 48 48 47 47 46 46 46 46 47 46
51 52 53 54 55 56 57 58 58 58 58 58 57 57 57 57 56 56 56 55 55 55 54 54 54 53 51 50 49 48 47 46 45 46 46 46 45 46 46 46 46 46 46
53 54 55 56 57 58 58 58 57 57 57 58 58 57 57 58 57 57 56 56 55 54 53 52 51 50 49 49 49 48 47 46 45 45 45 45 45 45 45 45 45 45 44
55 56 57 57 57 57 57 57 57 58 58 58 58 58 58 58 58 57 57 55 55 53 52 51 50 49 49 49 49 48 47 46 45 45 43 43 44 44 44 45 45 45 43
56 57 57 57 57 57 57 58 58 59 59 59 59 59 58 57 57 57 56 54 53 52 51 50 50 49 48 47 46 45 45 44 44 43 42 40 41 42 42 43 44 45 44
57 57 57 58 58 58 58 59 59 59 59 59 58 58 57 56 55 54 53 52 51 50 49 48 47 47 45 44 43 42 42 41 41 40 39 38 38 39 39 40 42 43 44

GEFSGL_500_meanwind_150.txt.gz
Wind_Speed
7 6 6 6 6 6 6 6 7 8 8 9 9 10 11 11 11 11 11 12 12 12 11 12 12 11 10 9 8 7 7 7 7 7 9 10 11 13 16 17 19 20 21
8 7 7 7 7 7 7 7 8 8 8 9 9 9 10 11 11 11 12 12 12 12 12 12 12 12 11 11 10 10 9 9 8 9 9 10 12 13 15 17 19 20 21
8 8 8 8 8 8 8 8 8 9 9 9 9 10 10 11 11 11 12 12 13 13 12 13 13 13 13 12 12 11 11 11 11 11 11 11 12 14 15 17 19 20 22
9 9 9 9 8 8 8 9 9 9 10 10 10 11 11 11 12 12 13 13 14 14 14 14 14 14 14 14 14 14 13 13 13 13 13 13 14 15 16 18 19 21 22
10 10 10 9 9 9 10 10 10 11 11 11 12 12 12 13 13 14 14 14 15 16 16 16 16 16 16 16 16 16 16 16 16 16 16 16 17 18 19 20 21 22 24
11 11 11 11 11 11 11 12 12 13 13 14 14 14 15 15 15 16 16 17 17 18 18 18 18 18 18 18 18 19 19 19 19 20 20 20 20 21 22 23 23 24 25
12 13 13 12 12 13 13 14 14 15 15 16 16 17 17 18 18 19 19 20 20 21 21 21 21 21 21 21 22 22 22 22 23 23 23 23 24 24 25 26 27 27 28
14 14 14 14 15 15 16 16 16 17 18 18 19 19 20 21 22 22 22 23 23 23 23 23 24 24 24 24 25 25 26 26 26 26 27 28 29 29 29 30 31 31 32
15 15 16 16 16 17 18 18 19 20 21 21 22 22 23 24 25 25 25 25 26 26 26 27 27 27 27 28 28 28 29 29 30 31 31 32 32 33 33 33 34 35 35
16 17 17 18 18 19 20 20 21 22 23 24 24 25 26 27 28 28 28 28 28 28 29 30 30 30 31 31 32 32 33 33 34 34 35 36 36 36 37 37 37 38 38
19 19 20 21 21 21 22 23 24 25 26 27 27 28 29 29 30 30 30 31 31 31 32 32 33 34 35 35 36 36 37 37 38 38 39 39 40 40 40 40 40 40 41
22 22 23 23 24 24 25 26 27 28 29 29 30 31 32 32 32 32 33 34 34 35 35 36 37 37 38 39 40 41 41 41 41 41 41 41 41 41 42 42 43 43 44
24 24 25 25 26 27 28 29 30 30 31 32 33 34 34 34 35 35 36 37 37 38 38 39 40 41 41 42 43 44 44 44 44 44 44 43 43 44 44 44 44 45 45
27 27 28 28 29 30 31 32 33 34 34 35 36 36 37 37 38 38 39 40 41 41 42 42 43 44 45 45 46 46 46 46 46 46 46 46 46 46 46 46 46 46 46
29 30 30 31 32 33 34 35 36 37 37 38 38 39 39 40 40 41 42 43 44 44 44 45 46 47 47 47 48 48 48 49 49 49 49 48 48 48 47 47 47 48 48
32 32 33 34 35 36 37 38 38 39 40 41 41 42 42 43 44 45 45 46 47 47 47 47 49 50 50 50 50 51 51 51 51 51 51 51 50 50 50 49 49 49 49
34 35 36 37 38 38 39 40 41 41 42 43 44 44 45 46 47 47 48 49 49 49 50 51 51 52 53 53 53 53 53 53 53 53 52 52 52 52 51 51 51 50 50
37 38 39 39 40 41 42 43 43 44 44 45 46 47 48 49 49 50 50 51 51 53 54 54 55 55 55 55 54 54 54 54 53 53 52 52 52 52 52 52 51 51 50
40 40 41 42 42 43 44 44 45 45 46 47 48 49 50 51 52 52 53 54 55 55 56 56 56 57 56 55 55 54 54 54 54 53 53 53 53 53 52 51 51 50 50
42 42 43 44 45 45 46 46 47 47 48 49 50 52 53 54 54 55 55 56 56 57 57 57 57 56 55 55 55 54 54 54 54 53 53 52 52 52 51 51 50 50 50
43 44 45 45 46 47 47 48 49 50 51 52 53 54 55 55 56 56 56 57 57 57 57 56 56 55 55 54 54 54 54 53 53 53 52 51 51 50 49 49 49 49 49
44 45 46 46 47 48 49 49 50 52 53 54 54 55 56 56 56 56 57 57 57 57 57 57 56 55 55 55 55 55 54 53 53 52 51 50 50 48 47 47 47 47 46
45 46 47 48 49 49 50 51 52 54 55 55 56 56 56 56 57 57 58 58 58 58 58 57 56 55 56 55 55 55 54 53 52 52 51 50 49 48 47 46 45 45 44
47 47 48 49 50 51 52 52 54 55 56 56 57 57 57 57 58 58 58 58 58 58 58 57 56 56 55 55 54 54 53 52 51 50 49 48 47 46 45 44 44 44 43
49 49 50 51 51 52 52 53 54 55 56 57 57 57 57 58 58 58 58 58 57 57 57 57 56 56 55 54 53 53 52 50 49 48 47 46 45 44 44 43 43 43 42
50 51 51 52 53 53 54 55 55 56 57 57 58 58 58 58 59 59 58 57 57 56 56 56 56 55 54 52 51 50 49 48 46 45 45 44 44 44 43 42 41 40 40

GEFSGL_500_meanwind_156.txt.gz
Wind_Speed
10 9 8 7 7 6 5 4 3 3 4 4 4 5 5 6 6 6 7 7 7 7 7 7 7 7 7 8 7 7 7 7 7 8 8 9 10 10 11 13 14 16 17
10 10 9 8 8 7 6 6 5 5 5 5 5 5 5 6 7 7 7 7 7 7 8 8 9 9 8 9 8 8 8 9 9 9 10 10 11 12 12 14 14 15 17
11 10 10 9 8 8 8 7 7 7 7 6 6 6 6 7 7 8 8 8 8 8 9 10 10 10 10 10 10 10 10 11 11 11 11 11 12 13 14 15 16 17 18
12 12 11 10 10 9 9 9 9 8 8 8 8 7 8 8 8 9 9 10 10 10 11 12 12 12 12 12 12 12 13 13 13 13 13 13 13 14 15 16 17 18 20
13 12 12 11 11 10 10 10 10 9 9 9 9 9 9 10 10 11 11 12 12 13 13 14 14 14 14 14 14 15 15 15 15 15 15 15 16 16 17 18 19 20 21
14 13 12 12 12 11 11 11 11 11 11 10 10 11 11 12 12 13 14 14 15 15 16 16 16 16 16 16 17 17 17 17 18 18 18 19 19 19 19 20 21 22 23
14 14 14 13 12 12 11 11 11 11 11 12 12 13 13 14 15 15 16 17 18 18 18 19 19 19 19 19 19 19 20 20 21 21 21 21 22 22 23 23 24 25 26
15 15 15 14 13 13 13 13 13 13 13 14 14 15 16 16 17 18 19 20 20 21 21 22 22 22 22 22 22 22 23 24 24 24 25 25 25 26 26 27 28 28 29
16 16 16 15 15 14 14 14 14 15 15 15 16 17 18 19 20 21 22 23 23 24 24 24 24 24 24 25 25 26 26 27 27 28 28 28 29 29 30 31 31 32 33
17 17 16 16 16 16 16 16 16 16 17 17 18 19 20 21 23 24 25 26 26 26 26 26 27 27 28 28 28 29 29 30 30 31 31 32 33 33 34 34 35 36 36
18 18 18 18 18 18 18 18 18 18 19 20 21 22 23 24 25 26 27 28 29 29 29 29 29 30 30 31 31 32 33 33 34 34 35 36 37 37 37 38 38 39 39
20 19 19 20 20 20 20 21 21 21 22 23 24 25 26 27 28 29 29 30 30 30 31 31 32 32 33 34 35 35 36 36 37 38 38 39 39 39 39 40 40 41 42
21 21 22 22 22 22 23 23 23 24 25 26 27 28 29 30 31 32 32 32 32 32 33 34 35 35 36 36 37 38 38 39 40 40 41 41 41 42 42 42 43 44 45
23 23 24 24 25 25 25 26 27 28 29 30 30 31 32 33 34 34 34 34 34 35 36 37 37 38 39 39 39 40 41 42 42 42 42 43 44 44 45 46 46 47 48
25 25 26 27 27 28 28 29 30 31 32 33 34 34 35 35 36 36 36 36 36 37 38 39 40 41 42 42 42 43 43 44 44 45 46 46 47 48 49 49 50 50 51
26 27 28 29 30 31 31 32 33 34 35 36 36 37 37 37 37 37 37 38 39 40 41 41 43 43 44 44 45 45 45 46 47 47 48 49 50 51 51 52 52 52 52
29 30 30 31 32 33 34 35 36 36 37 38 38 39 39 39 39 39 40 41 42 43 43 43 44 45 45 46 46 47 48 48 49 50 51 52 53 53 53 53 53 53 53
32 32 33 33 34 36 37 38 38 38 39 39 40 40 40 41 41 42 43 43 44 45 45 46 46 47 48 49 49 50 50 51 52 53 53 53 54 54 54 53 53 53 53
34 35 36 37 37 38 39 40 40 41 41 41 41 42 42 43 44 44 45 45 46 46 47 48 48 49 50 51 51 51 52 53 53 54 53 54 54 54 53 53 53 54 54
37 38 38 39 40 40 41 41 42 43 43 43 43 44 44 45 45 46 46 47 48 49 49 50 50 51 52 53 53 53 53 53 54 53 53 53 53 53 53 54 54 54 54
39 39 40 40 41 41 42 43 44 44 44 44 45 46 46 47 47 48 48 49 50 51 51 52 52 52 53 54 54 54 54 54 54 54 53 53 53 53 54 54 53 53 53
40 41 42 42 43 43 44 44 44 44 45 45 46 47 48 49 49 50 50 51 52 52 52 53 53 54 54 53 54 54 55 55 54 54 53 52 52 52 53 53 53 53 52
41 42 43 43 44 44 44 44 44 45 46 47 48 49 49 50 51 52 52 52 53 53 53 54 54 54 54 54 54 54 54 54 53 53 53 53 52 52 52 52 52 51 50
43 43 44 44 45 45 45 45 46 46 47 49 50 50 51 52 52 53 53 53 53 54 54 54 54 55 55 54 53 53 53 53 53 54 53 53 52 52 52 51 50 49 48
44 44 44 45 45 46 46 47 48 49 49 50 51 52 52 52 53 53 54 54 54 54 54 54 55 55 54 53 53 53 53 53 53 53 52 52 51 51 50 49 47 46 45
45 45 46 47 47 48 48 49 50 50 51 51 52 52 52 53 53 54 54 55 55 55 54 54 54 54 54 53 53 52 52 52 52 51 52 51 50 49 47 46 45 44 43